TimeAKST,TemperatureF,Dew PointF,Humidity,Sea Level PressureIn,VisibilityMPH,Wind Direction,Wind SpeedMPH,Gust SpeedMPH,PrecipitationIn,Events,Conditions,WindDirDegrees,DateUTC
12:40 AM,33.8,33.8,100,29.60,10.0,WNW,4.6,-,N/A,,Overcast,290,2013-12-21 09:40:00
12:53 AM,34.0,34.0,100,29.61,10.0,West,3.5,-,N/A,,Overcast,280,2013-12-21 09:53:00
1:28 AM,35.6,33.8,93,29.60,1.0,WSW,3.5,-,N/A,,Overcast,250,2013-12-21 10:28:00
1:53 AM,35.1,34.0,96,29.60,1.0,West,3.5,-,N/A,,Overcast,270,2013-12-21 10:53:00
2:53 AM,35.1,34.0,96,29.61,1.0,West,4.6,-,N/A,,Overcast,270,2013-12-21 11:53:00
3:53 AM,35.1,35.1,100,29.60,1.0,West,3.5,-,N/A,,Overcast,270,2013-12-21 12:53:00
4:53 AM,36.0,36.0,100,29.60,3.0,WSW,3.5,-,N/A,,Overcast,240,2013-12-21 13:53:00
5:43 AM,35.6,35.6,100,29.60,1.0,Calm,Calm,-,N/A,,Overcast,0,2013-12-21 14:43:00
5:53 AM,36.0,36.0,100,29.60,1.0,Calm,Calm,-,N/A,,Overcast,0,2013-12-21 14:53:00
6:04 AM,35.6,35.6,100,29.60,4.0,Calm,Calm,-,N/A,,Overcast,0,2013-12-21 15:04:00
6:15 AM,35.6,33.8,93,29.59,4.0,West,6.9,-,N/A,,Overcast,280,2013-12-21 15:15:00
6:41 AM,35.6,35.6,100,29.58,5.0,West,3.5,-,N/A,,Overcast,280,2013-12-21 15:41:00
6:53 AM,35.1,34.0,96,29.59,4.0,West,3.5,-,N/A,,Overcast,270,2013-12-21 15:53:00
7:53 AM,35.1,34.0,96,29.57,6.0,SSW,6.9,-,N/A,,Overcast,210,2013-12-21 16:53:00
8:10 AM,35.6,35.6,100,29.57,10.0,SW,5.8,-,N/A,,Overcast,230,2013-12-21 17:10:00
8:53 AM,35.1,35.1,100,29.57,9.0,Calm,Calm,-,0.00,Rain,Light Rain,0,2013-12-21 17:53:00
9:01 AM,35.6,33.8,93,29.56,10.0,Calm,Calm,-,0.00,Rain,Light Rain,0,2013-12-21 18:01:00
9:53 AM,36.0,35.1,97,29.57,10.0,Calm,Calm,-,0.00,Rain,Light Rain,0,2013-12-21 18:53:00
10:15 AM,35.6,33.8,93,29.56,4.0,WNW,3.5,-,0.00,Rain,Light Rain,290,2013-12-21 19:15:00
10:31 AM,33.8,33.8,100,29.56,4.0,WSW,3.5,-,0.00,Rain,Light Rain,250,2013-12-21 19:31:00
10:53 AM,35.1,35.1,100,29.56,6.0,Calm,Calm,-,0.00,Rain,Light Rain,0,2013-12-21 19:53:00
11:22 AM,35.6,35.6,100,29.56,3.0,Calm,Calm,-,0.01,Rain,Light Rain,0,2013-12-21 20:22:00
11:37 AM,35.6,35.6,100,29.56,2.0,Calm,Calm,-,0.02,Rain,Light Rain,0,2013-12-21 20:37:00
11:53 AM,35.1,35.1,100,29.56,1.0,Calm,Calm,-,0.03,Rain,Light Rain,0,2013-12-21 20:53:00
12:27 PM,35.6,35.6,100,29.55,1.0,Calm,Calm,-,0.03,Rain,Light Rain,0,2013-12-21 21:27:00
12:53 PM,36.0,35.1,97,29.55,1.5,Calm,Calm,-,0.06,Rain,Light Rain,0,2013-12-21 21:53:00
1:53 PM,37.9,37.0,97,29.53,1.5,Calm,Calm,-,0.06,Rain,Light Rain,0,2013-12-21 22:53:00
2:06 PM,37.4,37.4,100,29.53,3.0,Calm,Calm,-,0.01,Rain,Light Rain,0,2013-12-21 23:06:00
2:17 PM,37.4,37.4,100,29.53,2.0,West,3.5,-,0.02,Rain,Light Rain,270,2013-12-21 23:17:00
2:53 PM,37.0,36.0,96,29.52,4.0,West,3.5,-,0.05,Rain,Light Rain,270,2013-12-21 23:53:00
3:53 PM,37.0,36.0,96,29.50,8.0,NW,8.1,-,0.06,Rain,Light Rain,310,2013-12-22 00:53:00
4:53 PM,36.0,35.1,97,29.49,9.0,West,3.5,-,0.03,Rain,Light Rain,280,2013-12-22 01:53:00
5:53 PM,37.0,34.0,89,29.48,10.0,WNW,10.4,-,0.04,Rain,Light Rain,300,2013-12-22 02:53:00
6:02 PM,37.4,33.8,87,29.47,10.0,WNW,10.4,-,0.00,Rain,Light Rain,300,2013-12-22 03:02:00
6:53 PM,37.9,34.0,86,29.47,10.0,WNW,10.4,-,0.02,Rain,Light Rain,300,2013-12-22 03:53:00
7:53 PM,37.9,34.0,86,29.45,10.0,NW,8.1,-,0.01,Rain,Light Rain,310,2013-12-22 04:53:00
8:53 PM,37.9,34.0,86,29.44,10.0,NW,13.8,-,0.00,,Overcast,310,2013-12-22 05:53:00
9:53 PM,37.9,35.1,89,29.44,10.0,NW,8.1,-,N/A,,Overcast,310,2013-12-22 06:53:00
10:53 PM,37.0,35.1,93,29.43,10.0,WNW,10.4,-,0.00,Rain,Light Rain,300,2013-12-22 07:53:00
11:53 PM,37.9,35.1,89,29.44,10.0,NW,11.5,-,0.00,,Overcast,310,2013-12-22 08:53:00